TimeEDT,TemperatureF,Dew PointF,Humidity,Sea Level PressureIn,VisibilityMPH,Wind Direction,Wind SpeedMPH,Gust SpeedMPH,PrecipitationIn,Events,Conditions,WindDirDegrees,DateUTC
12:56 AM,57.9,53.1,84,29.99,10.0,West,3.5,-,N/A,,Clear,270,2013-05-08 04:56:00
1:56 AM,55.9,51.1,84,29.98,10.0,West,3.5,-,N/A,,Clear,260,2013-05-08 05:56:00
2:56 AM,55.9,50.0,80,29.98,10.0,West,3.5,-,N/A,,Clear,260,2013-05-08 06:56:00
3:56 AM,54.0,48.9,83,29.98,10.0,West,3.5,-,N/A,,Clear,260,2013-05-08 07:56:00
4:56 AM,53.1,48.0,83,29.98,10.0,Calm,Calm,-,N/A,,Clear,0,2013-05-08 08:56:00
5:56 AM,53.1,48.9,86,30.00,10.0,SSW,3.5,-,N/A,,Clear,210,2013-05-08 09:56:00
6:56 AM,53.1,48.9,86,30.02,10.0,SSW,3.5,-,N/A,,Clear,200,2013-05-08 10:56:00
7:56 AM,59.0,52.0,78,30.03,10.0,SW,5.8,-,N/A,,Clear,230,2013-05-08 11:56:00
8:56 AM,64.0,53.1,67,30.04,10.0,WSW,11.5,-,N/A,,Partly Cloudy,240,2013-05-08 12:56:00
9:56 AM,68.0,54.0,61,30.05,10.0,WSW,9.2,-,N/A,,Partly Cloudy,250,2013-05-08 13:56:00
10:56 AM,72.0,54.0,53,30.05,10.0,WSW,8.1,-,N/A,,Partly Cloudy,250,2013-05-08 14:56:00
11:56 AM,75.9,53.1,45,30.05,10.0,West,12.7,-,N/A,,Partly Cloudy,260,2013-05-08 15:56:00
12:56 PM,75.9,53.1,45,30.04,10.0,WSW,8.1,-,N/A,,Partly Cloudy,250,2013-05-08 16:56:00
1:56 PM,80.1,54.0,40,30.02,10.0,SW,13.8,19.6,N/A,,Scattered Clouds,230,2013-05-08 17:56:00
2:56 PM,78.1,54.0,43,30.01,10.0,WSW,12.7,18.4,N/A,,Scattered Clouds,240,2013-05-08 18:56:00
3:56 PM,81.0,54.0,39,30.00,10.0,West,11.5,-,N/A,,Mostly Cloudy,270,2013-05-08 19:56:00
4:56 PM,75.9,57.9,54,29.99,10.0,SSW,11.5,-,N/A,,Mostly Cloudy,200,2013-05-08 20:56:00
5:56 PM,75.9,57.0,52,30.00,10.0,SSW,12.7,-,N/A,,Mostly Cloudy,200,2013-05-08 21:56:00
6:56 PM,73.0,55.9,55,30.00,10.0,South,13.8,-,N/A,,Scattered Clouds,190,2013-05-08 22:56:00
7:56 PM,69.1,57.0,65,30.01,10.0,SSW,9.2,-,N/A,,Partly Cloudy,210,2013-05-08 23:56:00
8:56 PM,66.0,57.9,75,30.03,10.0,SSW,9.2,-,N/A,,Partly Cloudy,200,2013-05-09 00:56:00
9:56 PM,64.9,59.0,81,30.05,10.0,SSW,9.2,-,N/A,,Partly Cloudy,200,2013-05-09 01:56:00
10:56 PM,64.0,60.1,87,30.06,10.0,SSW,9.2,-,N/A,,Clear,200,2013-05-09 02:56:00
11:56 PM,64.9,60.1,84,30.06,10.0,SSW,8.1,-,N/A,,Clear,210,2013-05-09 03:56:00